This is the latest recevied weather packets stored in our database for station/object DH1BUZ-12. If no packets are shown the sender has not sent any weather packets the latest 10 day(s).
| Time | Temp. | Humidity | Pressure | Rain* | Wind** | Luminosity | Snow |
|---|---|---|---|---|---|---|---|
| 1777040815 | 15.56° C | 62% | 1015 hPa | - | - | - | - |
| 1777040749 | 16.11° C | 60% | 1015 hPa | - | - | - | - |
| 1777040684 | 16.11° C | 62% | 1015 hPa | - | - | - | - |
| 1777040618 | 16.11° C | 62% | 1015 hPa | - | - | - | - |
| 1777040553 | 16.11° C | 60% | 1015 hPa | - | - | - | - |
| 1777040487 | 15.56° C | 64% | 1015 hPa | - | - | - | - |
| 1777040422 | 15.56° C | 64% | 1015 hPa | - | - | - | - |
| 1777040356 | 15.56° C | 66% | 1015 hPa | - | - | - | - |
| 1777040290 | 15° C | 63% | 1015 hPa | - | - | - | - |
| 1777040225 | 15.56° C | 63% | 1015 hPa | - | - | - | - |
| 1777040159 | 15.56° C | 64% | 1015 hPa | - | - | - | - |
| 1777040094 | 16.11° C | 65% | 1015 hPa | - | - | - | - |
| 1777040028 | 15.56° C | 63% | 1015 hPa | - | - | - | - |
| 1777039962 | 16.11° C | 62% | 1015 hPa | - | - | - | - |
| 1777039897 | 16.11° C | 62% | 1015 hPa | - | - | - | - |
| 1777039831 | 16.67° C | 65% | 1015 hPa | - | - | - | - |
| 1777039766 | 16.67° C | 66% | 1015 hPa | - | - | - | - |
| 1777039700 | 16.11° C | 65% | 1015 hPa | - | - | - | - |
| 1777039635 | 16.11° C | 64% | 1015 hPa | - | - | - | - |
| 1777039569 | 16.11° C | 63% | 1015 hPa | - | - | - | - |
| 1777039503 | 16.11° C | 64% | 1015 hPa | - | - | - | - |
| 1777039438 | 15.56° C | 65% | 1015 hPa | - | - | - | - |
| 1777039372 | 15.56° C | 67% | 1015 hPa | - | - | - | - |
| 1777039307 | 15.56° C | 67% | 1016 hPa | - | - | - | - |
| 1777039241 | 15° C | 66% | 1015 hPa | - | - | - | - |
* Rain since midnight (hover to see other rain measurements)
** Current wind speed in m/s (hover to see current wind gust speed)